Terminal Aerodrome Forecast
Issued by NWS

Current Version | Previous Version | Graphics & Text | Print | Product List | Glossary On
Versions: 1 2 3 4 5 6 7 8 9 10 11 12 13 14 15 16 17 18 19 20 21 22 23 24 25 26 27 28 29 30 31 32 33 34
000
FTUS41 KRNK 171736
TAFLWB
TAF
KLWB 171736Z 1718/1818 28012KT P6SM BKN025
     FM172200 29005KT P6SM SCT025
     FM180200 30003KT P6SM BKN025
     FM181400 27004KT P6SM SCT030 BKN250=

USA.gov is the U.S. government's official web portal to all federal, state and local government web resources and services.